owner,sensor,date,latitude,longitude,vertical_datum,mass_concentration_of_oxygen_in_sea_water,qcFlag 
DISL,ioos:station:DISL:CATA:1,2009-03-01T00:00:00Z,30.3085,-88.1395,2.396,8.48,1111122 
DISL,ioos:station:DISL:CATA:1,2009-03-01T00:30:00Z,30.3085,-88.1395,2.366,8.48,1111122 
DISL,ioos:station:DISL:CATA:1,2009-03-01T01:00:00Z,30.3085,-88.1395,2.311,8.43,1111122 
DISL,ioos:station:DISL:CATA:1,2009-03-01T01:30:00Z,30.3085,-88.1395,2.286,8.42,1111122 
DISL,ioos:station:DISL:CATA:1,2009-03-01T02:00:00Z,30.3085,-88.1395,2.254,8.31,1111122 
DISL,ioos:station:DISL:CATA:1,2009-03-01T02:30:00Z,30.3085,-88.1395,2.219,8.34,1111122 
DISL,ioos:station:DISL:CATA:1,2009-03-01T03:00:00Z,30.3085,-88.1395,2.184,8.25,1111122 
DISL,ioos:station:DISL:CATA:1,2009-03-01T03:30:00Z,30.3085,-88.1395,2.182,8.37,1111122 
DISL,ioos:station:DISL:CATA:1,2009-03-01T04:00:00Z,30.3085,-88.1395,2.138,8.17,1111122 
DISL,ioos:station:DISL:CATA:1,2009-03-01T04:30:00Z,30.3085,-88.1395,2.111,8.27,1111122 
DISL,ioos:station:DISL:CATA:1,2009-03-01T05:00:00Z,30.3085,-88.1395,2.117,8.3,1111122 
DISL,ioos:station:DISL:CATA:1,2009-03-01T05:30:00Z,30.3085,-88.1395,2.131,8.07,1111122 
DISL,ioos:station:DISL:CATA:1,2009-03-01T06:00:00Z,30.3085,-88.1395,2.098,8.11,1111122 
DISL,ioos:station:DISL:CATA:1,2009-03-01T06:30:00Z,30.3085,-88.1395,2.079,8.16,1111122 
DISL,ioos:station:DISL:CATA:1,2009-03-01T07:00:00Z,30.3085,-88.1395,2.075,8.12,1111122 
DISL,ioos:station:DISL:CATA:1,2009-03-01T07:30:00Z,30.3085,-88.1395,2.046,8.08,1111122 
DISL,ioos:station:DISL:CATA:1,2009-03-01T08:00:00Z,30.3085,-88.1395,2.024,8.16,1111122 
DISL,ioos:station:DISL:CATA:1,2009-03-01T08:30:00Z,30.3085,-88.1395,2.058,8.19,1111122 
DISL,ioos:station:DISL:CATA:1,2009-03-01T09:00:00Z,30.3085,-88.1395,2.085,8.27,1111122 
DISL,ioos:station:DISL:CATA:1,2009-03-01T09:30:00Z,30.3085,-88.1395,2.116,8.29,1111122 
DISL,ioos:station:DISL:CATA:1,2009-03-01T10:00:00Z,30.3085,-88.1395,2.093,8.31,1111122 
DISL,ioos:station:DISL:CATA:1,2009-03-01T10:30:00Z,30.3085,-88.1395,2.063,8.29,1111122 
DISL,ioos:station:DISL:CATA:1,2009-03-01T11:00:00Z,30.3085,-88.1395,2.061,8.36,1111122 
DISL,ioos:station:DISL:CATA:1,2009-03-01T11:30:00Z,30.3085,-88.1395,2.082,8.5,1111122 
DISL,ioos:station:DISL:CATA:1,2009-03-01T12:00:00Z,30.3085,-88.1395,2.053,8.56,1111122 
DISL,ioos:station:DISL:CATA:1,2009-03-01T12:30:00Z,30.3085,-88.1395,2.034,8.66,1111122 
DISL,ioos:station:DISL:CATA:1,2009-03-01T13:00:00Z,30.3085,-88.1395,2.04,8.71,1111122 
DISL,ioos:station:DISL:CATA:1,2009-03-01T13:30:00Z,30.3085,-88.1395,2.076,8.77,1111122 
DISL,ioos:station:DISL:CATA:1,2009-03-01T14:00:00Z,30.3085,-88.1395,2.076,8.8,1111122 
DISL,ioos:station:DISL:CATA:1,2009-03-01T14:30:00Z,30.3085,-88.1395,2.086,8.87,1111122 
DISL,ioos:station:DISL:CATA:1,2009-03-01T15:00:00Z,30.3085,-88.1395,2.11,8.93,1111122 
DISL,ioos:station:DISL:CATA:1,2009-03-01T15:30:00Z,30.3085,-88.1395,2.15,9.09,1111122 
DISL,ioos:station:DISL:CATA:1,2009-03-01T16:00:00Z,30.3085,-88.1395,2.172,9.05,1111122 
DISL,ioos:station:DISL:CATA:1,2009-03-01T16:30:00Z,30.3085,-88.1395,2.179,9.06,1111122 
DISL,ioos:station:DISL:CATA:1,2009-03-01T17:00:00Z,30.3085,-88.1395,2.191,9.05,1111122 
DISL,ioos:station:DISL:CATA:1,2009-03-01T17:30:00Z,30.3085,-88.1395,2.222,9.11,1111122 
DISL,ioos:station:DISL:CATA:1,2009-03-01T18:00:00Z,30.3085,-88.1395,2.223,9.13,1111122 
DISL,ioos:station:DISL:CATA:1,2009-03-01T18:30:00Z,30.3085,-88.1395,2.222,9.2,1111122 
DISL,ioos:station:DISL:CATA:1,2009-03-01T19:30:00Z,30.3085,-88.1395,2.222,9.31,1111122 
DISL,ioos:station:DISL:CATA:1,2009-03-01T19:30:00Z,30.3085,-88.1395,2.222,9.19,1111122 
DISL,ioos:station:DISL:CATA:1,2009-03-01T20:00:00Z,30.3085,-88.1395,2.193,9.18,1111122 
DISL,ioos:station:DISL:CATA:1,2009-03-01T20:30:00Z,30.3085,-88.1395,2.195,9.16,1111122 
DISL,ioos:station:DISL:CATA:1,2009-03-01T21:00:00Z,30.3085,-88.1395,2.218,9.14,1111122 
DISL,ioos:station:DISL:CATA:1,2009-03-01T21:30:00Z,30.3085,-88.1395,2.207,9.12,1111122 
DISL,ioos:station:DISL:CATA:1,2009-03-01T22:00:00Z,30.3085,-88.1395,2.178,9.11,1111122 
DISL,ioos:station:DISL:CATA:1,2009-03-01T22:30:00Z,30.3085,-88.1395,2.167,9.09,1111122 
DISL,ioos:station:DISL:CATA:1,2009-03-01T23:00:00Z,30.3085,-88.1395,2.167,9.07,1111122 
DISL,ioos:station:DISL:CATA:1,2009-03-01T23:30:00Z,30.3085,-88.1395,2.13,9.03,1111122 
DISL,ioos:station:DISL:CATA:1,2009-03-02T00:00:00Z,30.3085,-88.1395,2.103,8.83,1111122 
DISL,ioos:station:DISL:CATA:1,2009-03-02T00:30:00Z,30.3085,-88.1395,2.076,8.84,1111122 
DISL,ioos:station:DISL:CATA:1,2009-03-02T01:00:00Z,30.3085,-88.1395,2.035,9.04,1111122 
DISL,ioos:station:DISL:CATA:1,2009-03-02T01:30:00Z,30.3085,-88.1395,2.011,9.11,1111122 
DISL,ioos:station:DISL:CATA:1,2009-03-02T02:00:00Z,30.3085,-88.1395,1.981,9.27,1111122 
DISL,ioos:station:DISL:CATA:1,2009-03-02T02:30:00Z,30.3085,-88.1395,1.952,9.35,1111122 
DISL,ioos:station:DISL:CATA:1,2009-03-02T03:00:00Z,30.3085,-88.1395,1.949,9.49,1111122 
DISL,ioos:station:DISL:CATA:1,2009-03-02T03:30:00Z,30.3085,-88.1395,1.924,9.45,1111122 
DISL,ioos:station:DISL:CATA:1,2009-03-02T04:00:00Z,30.3085,-88.1395,1.913,9.45,1111122 
DISL,ioos:station:DISL:CATA:1,2009-03-02T04:30:00Z,30.3085,-88.1395,1.89,9.35,1111122 
DISL,ioos:station:DISL:CATA:1,2009-03-02T05:00:00Z,30.3085,-88.1395,1.881,9.3,1111122 
DISL,ioos:station:DISL:CATA:1,2009-03-02T05:30:00Z,30.3085,-88.1395,1.869,9.24,1111122 
DISL,ioos:station:DISL:CATA:1,2009-03-02T06:00:00Z,30.3085,-88.1395,1.867,9.15,1111122 
DISL,ioos:station:DISL:CATA:1,2009-03-02T06:30:00Z,30.3085,-88.1395,1.878,9.02,1111122 
DISL,ioos:station:DISL:CATA:1,2009-03-02T07:00:00Z,30.3085,-88.1395,1.876,9.0,1111122 
DISL,ioos:station:DISL:CATA:1,2009-03-02T07:30:00Z,30.3085,-88.1395,1.858,8.98,1111122 
DISL,ioos:station:DISL:CATA:1,2009-03-02T08:00:00Z,30.3085,-88.1395,1.856,8.98,1111122 
DISL,ioos:station:DISL:CATA:1,2009-03-02T08:30:00Z,30.3085,-88.1395,1.864,8.98,1111122 
DISL,ioos:station:DISL:CATA:1,2009-03-02T09:00:00Z,30.3085,-88.1395,1.877,8.92,1111122 
DISL,ioos:station:DISL:CATA:1,2009-03-02T09:30:00Z,30.3085,-88.1395,1.887,8.71,1111122 
DISL,ioos:station:DISL:CATA:1,2009-03-02T10:00:00Z,30.3085,-88.1395,1.9,8.56,1111122 
DISL,ioos:station:DISL:CATA:1,2009-03-02T10:30:00Z,30.3085,-88.1395,1.911,8.87,1111122 
DISL,ioos:station:DISL:CATA:1,2009-03-02T11:00:00Z,30.3085,-88.1395,1.934,9.14,1111122 
DISL,ioos:station:DISL:CATA:1,2009-03-02T11:30:00Z,30.3085,-88.1395,1.972,9.42,1111122 
DISL,ioos:station:DISL:CATA:1,2009-03-02T12:00:00Z,30.3085,-88.1395,2.004,9.52,1111122 
DISL,ioos:station:DISL:CATA:1,2009-03-02T12:30:00Z,30.3085,-88.1395,2.031,9.7,1111122 
DISL,ioos:station:DISL:CATA:1,2009-03-02T13:00:00Z,30.3085,-88.1395,2.06,9.86,1111122 
DISL,ioos:station:DISL:CATA:1,2009-03-02T13:30:00Z,30.3085,-88.1395,2.096,9.83,1111122 
DISL,ioos:station:DISL:CATA:1,2009-03-02T14:00:00Z,30.3085,-88.1395,2.12,9.83,1111122 
DISL,ioos:station:DISL:CATA:1,2009-03-02T14:30:00Z,30.3085,-88.1395,2.145,9.84,1111122 
DISL,ioos:station:DISL:CATA:1,2009-03-02T15:00:00Z,30.3085,-88.1395,2.177,9.88,1111122 
DISL,ioos:station:DISL:CATA:1,2009-03-02T15:30:00Z,30.3085,-88.1395,2.206,9.83,1111122 
DISL,ioos:station:DISL:CATA:1,2009-03-02T16:00:00Z,30.3085,-88.1395,2.216,9.52,1111122 
DISL,ioos:station:DISL:CATA:1,2009-03-02T16:30:00Z,30.3085,-88.1395,2.246,9.55,1111122 
DISL,ioos:station:DISL:CATA:1,2009-03-02T17:00:00Z,30.3085,-88.1395,2.262,9.33,1111122 
DISL,ioos:station:DISL:CATA:1,2009-03-02T17:30:00Z,30.3085,-88.1395,2.301,9.46,1111122 
DISL,ioos:station:DISL:CATA:1,2009-03-02T18:00:00Z,30.3085,-88.1395,2.328,9.72,1111122 
DISL,ioos:station:DISL:CATA:1,2009-03-02T18:30:00Z,30.3085,-88.1395,2.359,9.86,1111122 
DISL,ioos:station:DISL:CATA:1,2009-03-02T19:00:00Z,30.3085,-88.1395,2.392,9.9,1111122 
DISL,ioos:station:DISL:CATA:1,2009-03-02T19:30:00Z,30.3085,-88.1395,2.399,9.88,1111122 
DISL,ioos:station:DISL:CATA:1,2009-03-02T20:00:00Z,30.3085,-88.1395,2.409,9.94,1111122 
DISL,ioos:station:DISL:CATA:1,2009-03-02T20:30:00Z,30.3085,-88.1395,2.411,10.17,1111122 
DISL,ioos:station:DISL:CATA:1,2009-03-02T21:00:00Z,30.3085,-88.1395,2.4,10.21,1111122 
DISL,ioos:station:DISL:CATA:1,2009-03-02T21:30:00Z,30.3085,-88.1395,2.395,10.07,1111122 
DISL,ioos:station:DISL:CATA:1,2009-03-02T22:00:00Z,30.3085,-88.1395,2.372,9.78,1111122 
DISL,ioos:station:DISL:CATA:1,2009-03-02T22:30:00Z,30.3085,-88.1395,2.351,9.55,1111122 
DISL,ioos:station:DISL:CATA:1,2009-03-02T23:00:00Z,30.3085,-88.1395,2.336,9.38,1111122 
DISL,ioos:station:DISL:CATA:1,2009-03-02T23:30:00Z,30.3085,-88.1395,2.317,9.55,1111122 
DISL,ioos:station:DISL:CATA:1,2009-03-03T00:00:00Z,30.3085,-88.1395,2.283,9.91,1111122 
DISL,ioos:station:DISL:CATA:1,2009-03-03T00:30:00Z,30.3085,-88.1395,2.261,9.61,1111122 
DISL,ioos:station:DISL:CATA:1,2009-03-03T01:00:00Z,30.3085,-88.1395,2.238,9.78,1111122 
DISL,ioos:station:DISL:CATA:1,2009-03-03T01:30:00Z,30.3085,-88.1395,2.207,9.9,1111122 
DISL,ioos:station:DISL:CATA:1,2009-03-03T02:00:00Z,30.3085,-88.1395,2.177,9.85,1111122 
DISL,ioos:station:DISL:CATA:1,2009-03-03T02:30:00Z,30.3085,-88.1395,2.144,9.67,1111122 
DISL,ioos:station:DISL:CATA:1,2009-03-03T03:00:00Z,30.3085,-88.1395,2.115,9.63,1111122 
DISL,ioos:station:DISL:CATA:1,2009-03-03T03:30:00Z,30.3085,-88.1395,2.091,9.55,1111122 
DISL,ioos:station:DISL:CATA:1,2009-03-03T04:00:00Z,30.3085,-88.1395,2.075,9.48,1111122 
DISL,ioos:station:DISL:CATA:1,2009-03-03T04:30:00Z,30.3085,-88.1395,2.05,9.48,1111122 
DISL,ioos:station:DISL:CATA:1,2009-03-03T05:00:00Z,30.3085,-88.1395,2.013,9.49,1111122 
DISL,ioos:station:DISL:CATA:1,2009-03-03T05:30:00Z,30.3085,-88.1395,1.985,9.5,1111122 
DISL,ioos:station:DISL:CATA:1,2009-03-03T06:00:00Z,30.3085,-88.1395,1.949,9.55,1111122 
DISL,ioos:station:DISL:CATA:1,2009-03-03T06:30:00Z,30.3085,-88.1395,1.928,9.55,1111122 
DISL,ioos:station:DISL:CATA:1,2009-03-03T07:00:00Z,30.3085,-88.1395,1.93,9.61,1111122 
DISL,ioos:station:DISL:CATA:1,2009-03-03T07:30:00Z,30.3085,-88.1395,1.921,9.62,1111122 
DISL,ioos:station:DISL:CATA:1,2009-03-03T08:00:00Z,30.3085,-88.1395,1.917,9.58,1111122 
DISL,ioos:station:DISL:CATA:1,2009-03-03T08:30:00Z,30.3085,-88.1395,1.932,9.54,1111122 
DISL,ioos:station:DISL:CATA:1,2009-03-03T09:00:00Z,30.3085,-88.1395,1.938,9.53,1111122 
DISL,ioos:station:DISL:CATA:1,2009-03-03T09:30:00Z,30.3085,-88.1395,1.95,9.49,1111122 
DISL,ioos:station:DISL:CATA:1,2009-03-03T10:00:00Z,30.3085,-88.1395,1.971,9.46,1111122 
DISL,ioos:station:DISL:CATA:1,2009-03-03T10:30:00Z,30.3085,-88.1395,1.988,9.46,1111122 
DISL,ioos:station:DISL:CATA:1,2009-03-03T11:00:00Z,30.3085,-88.1395,2.013,9.45,1111122 
DISL,ioos:station:DISL:CATA:1,2009-03-03T11:30:00Z,30.3085,-88.1395,2.023,9.5,1111122 
DISL,ioos:station:DISL:CATA:1,2009-03-03T12:00:00Z,30.3085,-88.1395,2.042,9.47,1111122 
DISL,ioos:station:DISL:CATA:1,2009-03-03T12:30:00Z,30.3085,-88.1395,2.074,9.59,1111122 
DISL,ioos:station:DISL:CATA:1,2009-03-03T13:00:00Z,30.3085,-88.1395,2.099,9.65,1111122 
DISL,ioos:station:DISL:CATA:1,2009-03-03T13:30:00Z,30.3085,-88.1395,2.113,9.87,1111122 
DISL,ioos:station:DISL:CATA:1,2009-03-03T14:00:00Z,30.3085,-88.1395,2.127,9.87,1111122 
DISL,ioos:station:DISL:CATA:1,2009-03-03T14:30:00Z,30.3085,-88.1395,2.162,10.1,1111122 
DISL,ioos:station:DISL:CATA:1,2009-03-03T15:00:00Z,30.3085,-88.1395,2.202,9.95,1111122 
DISL,ioos:station:DISL:CATA:1,2009-03-03T15:30:00Z,30.3085,-88.1395,2.235,9.77,1111122 
DISL,ioos:station:DISL:CATA:1,2009-03-03T16:00:00Z,30.3085,-88.1395,2.271,10.48,1111122 
DISL,ioos:station:DISL:CATA:1,2009-03-03T16:30:00Z,30.3085,-88.1395,2.294,10.26,1111122 
DISL,ioos:station:DISL:CATA:1,2009-03-03T17:00:00Z,30.3085,-88.1395,2.332,10.2,1111122 
DISL,ioos:station:DISL:CATA:1,2009-03-03T17:30:00Z,30.3085,-88.1395,2.361,10.0,1111122 
DISL,ioos:station:DISL:CATA:1,2009-03-03T18:00:00Z,30.3085,-88.1395,2.394,10.01,1111122 
DISL,ioos:station:DISL:CATA:1,2009-03-03T18:30:00Z,30.3085,-88.1395,2.426,10.18,1111122 
DISL,ioos:station:DISL:CATA:1,2009-03-03T19:00:00Z,30.3085,-88.1395,2.45,10.17,1111122 
DISL,ioos:station:DISL:CATA:1,2009-03-03T19:30:00Z,30.3085,-88.1395,2.469,9.97,1111122 
DISL,ioos:station:DISL:CATA:1,2009-03-03T20:00:00Z,30.3085,-88.1395,2.489,9.95,1111122 
DISL,ioos:station:DISL:CATA:1,2009-03-03T20:30:00Z,30.3085,-88.1395,2.51,10.01,1111122 
DISL,ioos:station:DISL:CATA:1,2009-03-03T21:00:00Z,30.3085,-88.1395,2.515,9.88,1111122 
DISL,ioos:station:DISL:CATA:1,2009-03-03T21:30:00Z,30.3085,-88.1395,2.511,9.91,1111122 
DISL,ioos:station:DISL:CATA:1,2009-03-03T22:00:00Z,30.3085,-88.1395,2.514,9.9,1111122 
DISL,ioos:station:DISL:CATA:1,2009-03-03T22:30:00Z,30.3085,-88.1395,2.508,9.94,1111122 
DISL,ioos:station:DISL:CATA:1,2009-03-03T23:00:00Z,30.3085,-88.1395,2.487,9.75,1111122 
DISL,ioos:station:DISL:CATA:1,2009-03-03T23:30:00Z,30.3085,-88.1395,2.46,9.71,1111122 
DISL,ioos:station:DISL:CATA:1,2009-03-04T00:00:00Z,30.3085,-88.1395,2.431,9.82,1111122 
DISL,ioos:station:DISL:CATA:1,2009-03-04T00:30:00Z,30.3085,-88.1395,2.411,10.66,1111122 
DISL,ioos:station:DISL:CATA:1,2009-03-04T01:00:00Z,30.3085,-88.1395,2.38,10.91,1111122 
DISL,ioos:station:DISL:CATA:1,2009-03-04T01:30:00Z,30.3085,-88.1395,2.348,10.74,1111122 
DISL,ioos:station:DISL:CATA:1,2009-03-04T02:00:00Z,30.3085,-88.1395,2.316,10.6,1111122 
DISL,ioos:station:DISL:CATA:1,2009-03-04T02:30:00Z,30.3085,-88.1395,2.29,10.5,1111122 
DISL,ioos:station:DISL:CATA:1,2009-03-04T03:00:00Z,30.3085,-88.1395,2.266,10.39,1111122 
DISL,ioos:station:DISL:CATA:1,2009-03-04T03:30:00Z,30.3085,-88.1395,2.236,10.32,1111122 
DISL,ioos:station:DISL:CATA:1,2009-03-04T04:00:00Z,30.3085,-88.1395,2.201,10.39,1111122 
DISL,ioos:station:DISL:CATA:1,2009-03-04T04:30:00Z,30.3085,-88.1395,2.175,10.48,1111122 
DISL,ioos:station:DISL:CATA:1,2009-03-04T05:00:00Z,30.3085,-88.1395,2.143,10.46,1111122 
DISL,ioos:station:DISL:CATA:1,2009-03-04T05:30:00Z,30.3085,-88.1395,2.113,10.38,1111122 
DISL,ioos:station:DISL:CATA:1,2009-03-04T06:00:00Z,30.3085,-88.1395,2.087,10.38,1111122 
DISL,ioos:station:DISL:CATA:1,2009-03-04T06:30:00Z,30.3085,-88.1395,2.072,10.37,1111122 
DISL,ioos:station:DISL:CATA:1,2009-03-04T07:00:00Z,30.3085,-88.1395,2.056,10.39,1111122 
DISL,ioos:station:DISL:CATA:1,2009-03-04T07:30:00Z,30.3085,-88.1395,2.037,10.34,1111122 
DISL,ioos:station:DISL:CATA:1,2009-03-04T08:00:00Z,30.3085,-88.1395,2.023,10.44,1111122 
DISL,ioos:station:DISL:CATA:1,2009-03-04T08:30:00Z,30.3085,-88.1395,2.021,10.56,1111122 
DISL,ioos:station:DISL:CATA:1,2009-03-04T09:00:00Z,30.3085,-88.1395,2.022,10.7,1111122 
DISL,ioos:station:DISL:CATA:1,2009-03-04T09:30:00Z,30.3085,-88.1395,2.03,10.7,1111122 
DISL,ioos:station:DISL:CATA:1,2009-03-04T10:00:00Z,30.3085,-88.1395,2.039,10.64,1111122 
DISL,ioos:station:DISL:CATA:1,2009-03-04T10:30:00Z,30.3085,-88.1395,2.05,10.75,1111122 
DISL,ioos:station:DISL:CATA:1,2009-03-04T11:00:00Z,30.3085,-88.1395,2.063,10.81,1111122 
DISL,ioos:station:DISL:CATA:1,2009-03-04T11:30:00Z,30.3085,-88.1395,2.087,10.8,1111122 
DISL,ioos:station:DISL:CATA:1,2009-03-04T12:00:00Z,30.3085,-88.1395,2.113,10.82,1111122 
DISL,ioos:station:DISL:CATA:1,2009-03-04T12:30:00Z,30.3085,-88.1395,2.146,10.84,1111122 
DISL,ioos:station:DISL:CATA:1,2009-03-04T13:00:00Z,30.3085,-88.1395,2.173,10.57,1111122 
DISL,ioos:station:DISL:CATA:1,2009-03-04T13:30:00Z,30.3085,-88.1395,2.205,10.44,1111122 
DISL,ioos:station:DISL:CATA:1,2009-03-04T14:00:00Z,30.3085,-88.1395,2.248,10.4,1111122 
DISL,ioos:station:DISL:CATA:1,2009-03-04T14:30:00Z,30.3085,-88.1395,2.278,10.4,1111122 
DISL,ioos:station:DISL:CATA:1,2009-03-04T15:00:00Z,30.3085,-88.1395,2.298,10.57,1111122 
DISL,ioos:station:DISL:CATA:1,2009-03-04T15:30:00Z,30.3085,-88.1395,2.322,10.77,1111122 
DISL,ioos:station:DISL:CATA:1,2009-03-04T16:00:00Z,30.3085,-88.1395,2.346,10.78,1111122 
DISL,ioos:station:DISL:CATA:1,2009-03-04T16:30:00Z,30.3085,-88.1395,2.372,10.79,1111122 
DISL,ioos:station:DISL:CATA:1,2009-03-04T17:00:00Z,30.3085,-88.1395,2.407,11.14,1111122 
DISL,ioos:station:DISL:CATA:1,2009-03-04T17:30:00Z,30.3085,-88.1395,2.451,11.24,1111122 
DISL,ioos:station:DISL:CATA:1,2009-03-04T18:00:00Z,30.3085,-88.1395,2.482,11.33,1111122 
DISL,ioos:station:DISL:CATA:1,2009-03-04T18:30:00Z,30.3085,-88.1395,2.509,11.29,1111122 
DISL,ioos:station:DISL:CATA:1,2009-03-04T19:00:00Z,30.3085,-88.1395,2.535,11.17,1111122 
DISL,ioos:station:DISL:CATA:1,2009-03-04T19:30:00Z,30.3085,-88.1395,2.556,11.15,1111122 
DISL,ioos:station:DISL:CATA:1,2009-03-04T20:00:00Z,30.3085,-88.1395,2.578,11.17,1111122 
DISL,ioos:station:DISL:CATA:1,2009-03-04T20:30:00Z,30.3085,-88.1395,2.592,11.18,1111122 
DISL,ioos:station:DISL:CATA:1,2009-03-04T21:00:00Z,30.3085,-88.1395,2.614,11.2,1111122 
DISL,ioos:station:DISL:CATA:1,2009-03-04T21:30:00Z,30.3085,-88.1395,2.625,11.24,1111122 
DISL,ioos:station:DISL:CATA:1,2009-03-04T22:00:00Z,30.3085,-88.1395,2.626,10.96,1111122 
DISL,ioos:station:DISL:CATA:1,2009-03-04T22:30:00Z,30.3085,-88.1395,2.63,10.73,1111122 
DISL,ioos:station:DISL:CATA:1,2009-03-04T23:00:00Z,30.3085,-88.1395,2.621,10.59,1111122 
DISL,ioos:station:DISL:CATA:1,2009-03-04T23:30:00Z,30.3085,-88.1395,2.606,10.49,1111122 
DISL,ioos:station:DISL:CATA:1,2009-03-05T00:00:00Z,30.3085,-88.1395,2.588,10.53,1111122 
DISL,ioos:station:DISL:CATA:1,2009-03-05T00:30:00Z,30.3085,-88.1395,2.572,10.64,1111122 
DISL,ioos:station:DISL:CATA:1,2009-03-05T01:00:00Z,30.3085,-88.1395,2.544,10.78,1111122 
DISL,ioos:station:DISL:CATA:1,2009-03-05T01:30:00Z,30.3085,-88.1395,2.527,10.82,1111122 
DISL,ioos:station:DISL:CATA:1,2009-03-05T02:00:00Z,30.3085,-88.1395,2.485,10.97,1111122 
DISL,ioos:station:DISL:CATA:1,2009-03-05T02:30:00Z,30.3085,-88.1395,2.458,11.01,1111122 
DISL,ioos:station:DISL:CATA:1,2009-03-05T03:00:00Z,30.3085,-88.1395,2.425,10.9,1111122 
DISL,ioos:station:DISL:CATA:1,2009-03-05T03:30:00Z,30.3085,-88.1395,2.386,10.78,1111122 
DISL,ioos:station:DISL:CATA:1,2009-03-05T04:00:00Z,30.3085,-88.1395,2.353,10.79,1111122 
DISL,ioos:station:DISL:CATA:1,2009-03-05T04:30:00Z,30.3085,-88.1395,2.319,10.83,1111122 
DISL,ioos:station:DISL:CATA:1,2009-03-05T05:00:00Z,30.3085,-88.1395,2.286,11.05,1111122 
DISL,ioos:station:DISL:CATA:1,2009-03-05T05:30:00Z,30.3085,-88.1395,2.249,11.08,1111122 
DISL,ioos:station:DISL:CATA:1,2009-03-05T06:00:00Z,30.3085,-88.1395,2.213,11.07,1111122 
DISL,ioos:station:DISL:CATA:1,2009-03-05T06:30:00Z,30.3085,-88.1395,2.187,11.21,1111122 
DISL,ioos:station:DISL:CATA:1,2009-03-05T07:00:00Z,30.3085,-88.1395,2.165,11.27,1111122 
DISL,ioos:station:DISL:CATA:1,2009-03-05T07:30:00Z,30.3085,-88.1395,2.147,11.4,1111122 
DISL,ioos:station:DISL:CATA:1,2009-03-05T08:00:00Z,30.3085,-88.1395,2.13,11.37,1111122 
DISL,ioos:station:DISL:CATA:1,2009-03-05T08:30:00Z,30.3085,-88.1395,2.112,11.33,1111122 
DISL,ioos:station:DISL:CATA:1,2009-03-05T09:00:00Z,30.3085,-88.1395,2.096,11.31,1111122 
DISL,ioos:station:DISL:CATA:1,2009-03-05T09:30:00Z,30.3085,-88.1395,2.091,11.31,1111122 
DISL,ioos:station:DISL:CATA:1,2009-03-05T10:00:00Z,30.3085,-88.1395,2.087,11.36,1111122 
DISL,ioos:station:DISL:CATA:1,2009-03-05T10:30:00Z,30.3085,-88.1395,2.093,11.37,1111122 
DISL,ioos:station:DISL:CATA:1,2009-03-05T11:00:00Z,30.3085,-88.1395,2.107,11.41,1111122 
DISL,ioos:station:DISL:CATA:1,2009-03-05T11:30:00Z,30.3085,-88.1395,2.141,11.35,1111122 
DISL,ioos:station:DISL:CATA:1,2009-03-05T12:00:00Z,30.3085,-88.1395,2.162,11.35,1111122 
DISL,ioos:station:DISL:CATA:1,2009-03-05T12:30:00Z,30.3085,-88.1395,2.187,11.39,1111122 
DISL,ioos:station:DISL:CATA:1,2009-03-05T13:00:00Z,30.3085,-88.1395,2.213,11.29,1111122 
DISL,ioos:station:DISL:CATA:1,2009-03-05T13:30:00Z,30.3085,-88.1395,2.243,11.29,1111122 
DISL,ioos:station:DISL:CATA:1,2009-03-05T14:00:00Z,30.3085,-88.1395,2.273,11.5,1111122 
DISL,ioos:station:DISL:CATA:1,2009-03-05T14:30:00Z,30.3085,-88.1395,2.315,11.61,1111122 
DISL,ioos:station:DISL:CATA:1,2009-03-05T15:00:00Z,30.3085,-88.1395,2.351,11.63,1111122 
DISL,ioos:station:DISL:CATA:1,2009-03-05T15:30:00Z,30.3085,-88.1395,2.37,11.84,1111122 
DISL,ioos:station:DISL:CATA:1,2009-03-05T16:00:00Z,30.3085,-88.1395,2.4,11.9,1111122 
DISL,ioos:station:DISL:CATA:1,2009-03-05T16:30:00Z,30.3085,-88.1395,2.431,11.85,1111122 
DISL,ioos:station:DISL:CATA:1,2009-03-05T17:00:00Z,30.3085,-88.1395,2.467,11.89,1111122 
DISL,ioos:station:DISL:CATA:1,2009-03-05T17:30:00Z,30.3085,-88.1395,2.495,11.81,1111122 
DISL,ioos:station:DISL:CATA:1,2009-03-05T18:00:00Z,30.3085,-88.1395,2.523,11.63,1111122 
DISL,ioos:station:DISL:CATA:1,2009-03-05T18:30:00Z,30.3085,-88.1395,2.561,11.48,1111122 
DISL,ioos:station:DISL:CATA:1,2009-03-05T19:00:00Z,30.3085,-88.1395,2.586,11.35,1111122 
DISL,ioos:station:DISL:CATA:1,2009-03-05T19:30:00Z,30.3085,-88.1395,2.613,11.34,1111122 
DISL,ioos:station:DISL:CATA:1,2009-03-05T20:00:00Z,30.3085,-88.1395,2.635,11.34,1111122 
DISL,ioos:station:DISL:CATA:1,2009-03-05T20:30:00Z,30.3085,-88.1395,2.665,11.34,1111122 
DISL,ioos:station:DISL:CATA:1,2009-03-05T21:00:00Z,30.3085,-88.1395,2.666,11.38,1111122 
DISL,ioos:station:DISL:CATA:1,2009-03-05T21:30:00Z,30.3085,-88.1395,2.692,11.36,1111122 
DISL,ioos:station:DISL:CATA:1,2009-03-05T22:00:00Z,30.3085,-88.1395,2.714,11.34,1111122 
DISL,ioos:station:DISL:CATA:1,2009-03-05T22:30:00Z,30.3085,-88.1395,2.726,11.23,1111122 
DISL,ioos:station:DISL:CATA:1,2009-03-05T23:00:00Z,30.3085,-88.1395,2.738,11.02,1111122 
DISL,ioos:station:DISL:CATA:1,2009-03-05T23:30:00Z,30.3085,-88.1395,2.737,10.88,1111122 
DISL,ioos:station:DISL:CATA:1,2009-03-06T00:00:00Z,30.3085,-88.1395,2.726,10.73,1111122 
DISL,ioos:station:DISL:CATA:1,2009-03-06T00:30:00Z,30.3085,-88.1395,2.717,10.56,1111122 
DISL,ioos:station:DISL:CATA:1,2009-03-06T01:00:00Z,30.3085,-88.1395,2.701,10.63,1111122 
DISL,ioos:station:DISL:CATA:1,2009-03-06T01:30:00Z,30.3085,-88.1395,2.678,10.85,1111122 
DISL,ioos:station:DISL:CATA:1,2009-03-06T02:00:00Z,30.3085,-88.1395,2.657,11.55,1111122 
DISL,ioos:station:DISL:CATA:1,2009-03-06T02:30:00Z,30.3085,-88.1395,2.627,11.62,1111122 
DISL,ioos:station:DISL:CATA:1,2009-03-06T03:00:00Z,30.3085,-88.1395,2.59,11.57,1111122 
DISL,ioos:station:DISL:CATA:1,2009-03-06T03:30:00Z,30.3085,-88.1395,2.556,11.47,1111122 
DISL,ioos:station:DISL:CATA:1,2009-03-06T04:00:00Z,30.3085,-88.1395,2.515,11.77,1111122 
DISL,ioos:station:DISL:CATA:1,2009-03-06T04:30:00Z,30.3085,-88.1395,2.475,11.98,1111122 
DISL,ioos:station:DISL:CATA:1,2009-03-06T05:00:00Z,30.3085,-88.1395,2.439,11.81,1111122 
DISL,ioos:station:DISL:CATA:1,2009-03-06T05:30:00Z,30.3085,-88.1395,2.403,11.88,1111122 
DISL,ioos:station:DISL:CATA:1,2009-03-06T06:00:00Z,30.3085,-88.1395,2.364,11.9,1111122 
DISL,ioos:station:DISL:CATA:1,2009-03-06T06:30:00Z,30.3085,-88.1395,2.331,11.91,1111122 
DISL,ioos:station:DISL:CATA:1,2009-03-06T07:00:00Z,30.3085,-88.1395,2.296,11.86,1111122 
DISL,ioos:station:DISL:CATA:1,2009-03-06T07:30:00Z,30.3085,-88.1395,2.262,11.84,1111122 
DISL,ioos:station:DISL:CATA:1,2009-03-06T08:00:00Z,30.3085,-88.1395,2.233,11.77,1111122 
DISL,ioos:station:DISL:CATA:1,2009-03-06T08:30:00Z,30.3085,-88.1395,2.201,11.85,1111122 
DISL,ioos:station:DISL:CATA:1,2009-03-06T09:00:00Z,30.3085,-88.1395,2.176,12.24,1111122 
DISL,ioos:station:DISL:CATA:1,2009-03-06T09:30:00Z,30.3085,-88.1395,2.154,12.28,1111122 
DISL,ioos:station:DISL:CATA:1,2009-03-06T10:00:00Z,30.3085,-88.1395,2.138,12.19,1111122 
DISL,ioos:station:DISL:CATA:1,2009-03-06T10:30:00Z,30.3085,-88.1395,2.128,12.14,1111122 
DISL,ioos:station:DISL:CATA:1,2009-03-06T11:00:00Z,30.3085,-88.1395,2.122,12.1,1111122 
DISL,ioos:station:DISL:CATA:1,2009-03-06T11:30:00Z,30.3085,-88.1395,2.124,12.03,1111122 
DISL,ioos:station:DISL:CATA:1,2009-03-06T12:00:00Z,30.3085,-88.1395,2.131,12.07,1111122 
DISL,ioos:station:DISL:CATA:1,2009-03-06T12:30:00Z,30.3085,-88.1395,2.15,12.05,1111122 
DISL,ioos:station:DISL:CATA:1,2009-03-06T13:00:00Z,30.3085,-88.1395,2.177,12.11,1111122 
DISL,ioos:station:DISL:CATA:1,2009-03-06T13:30:00Z,30.3085,-88.1395,2.208,12.08,1111122 
DISL,ioos:station:DISL:CATA:1,2009-03-06T14:00:00Z,30.3085,-88.1395,2.243,12.11,1111122 
DISL,ioos:station:DISL:CATA:1,2009-03-06T14:30:00Z,30.3085,-88.1395,2.275,12.18,1111122 